[[{"header":{"parameterUnit":"m.s-1","parameterCategory":1,"la1":30.2991,"la2":30.254,"lo1":-89.0895,"lo2":-89.0444,"dy":0.0017,"dx":0.0017,"nx":28,"ny":28,"refTime":"2023-10-05T09:00:00:Z","depth":0,"parameterNumber":2,"parameterNumberName":"U-component_of_WINDS"},"data":[0,0,0,0,0,0,0,0,0,0,0,0,0,0,0,0,0,0,0,0,0,0,0,0,0,0,0,0,0,0,0,0,0,0,0,0,0,0,0,0,0,0,0,0,0,0,0,0,0,0,0,0,0,0,0,0,0,0,-1.0731,-1.0732,0,-1.082,-1.0821,-1.0822,-1.0832,-1.0831,-1.083,-1.0829,-1.0922,-1.0925,-1.0928,0,0,0,0,0,0,0,0,0,0,0,0,0,-1.0571,-1.0574,-1.0731,-1.0732,-1.0733,-1.082,-1.0821,-1.0822,-1.0832,-1.0831,-1.083,-1.0829,-1.092,-1.0924,-1.0928,0,0,0,0,0,0,0,0,0,0,0,0,0,-1.0648,-1.0575,-1.0731,-1.0749,-1.0751,-1.082,-1.0821,-1.0823,-1.0832,-1.0831,-1.083,-1.0828,-1.0919,-1.0924,-1.0929,-1.0986,0,0,-1.0944,-1.0946,0,0,0,0,0,0,0,0,-1.0644,-1.0654,-1.0745,-1.0748,-1.075,-1.0813,-1.0798,-1.0877,-1.0833,-1.0802,-1.0829,-1.0828,-1.0887,-1.0894,-1.0914,-1.0991,-1.0994,-1.0944,-1.0947,-1.0949,-1.0951,0,0,0,0,0,0,0,-1.0639,-1.0651,-1.0766,-1.0746,-1.075,-1.0753,-1.0762,-1.0814,-1.0851,-1.0804,-1.0805,-1.0815,-1.0888,-1.0909,-1.0916,-1.0996,-1.0944,-1.0949,-1.0952,-1.0954,-1.1123,-1.1125,0,0,0,0,0,0,-1.063,-1.0646,-1.0764,-1.0769,-1.0693,-1.0756,-1.0767,-1.0795,-1.085,-1.0857,-1.0816,-1.0815,-1.0901,-1.091,-1.0919,-1.099,-1.0949,-1.0954,-1.0957,-1.1122,-1.1124,-1.1125,0,0,0,0,0,0,-1.0626,-1.064,-1.076,-1.0708,-1.0723,-1.0761,-1.0792,-1.0797,-1.0818,-1.0859,-1.0866,-1.0831,-1.0901,-1.0913,-1.0969,-1.0993,-1.0956,-1.0961,-1.112,-1.1123,-1.1125,-1.1132,0,0,0,0,0,0,-1.0622,-1.0639,-1.0661,-1.0708,-1.0726,-1.0808,-1.0793,-1.08,-1.0827,-1.0826,-1.0875,-1.0882,-1.0901,-1.0962,-1.0974,-1.1,-1.0965,-1.1118,-1.1121,-1.1124,-1.113,-1.1134,-1.1138,0,0,0,0,0,-1.0616,-1.066,-1.0662,-1.0676,-1.0754,-1.081,-1.082,-1.084,-1.0828,-1.0851,-1.0877,-1.088,-1.0989,-1.0968,-1.0982,-1.1009,-1.1117,-1.112,-1.1124,-1.1128,-1.1133,-1.1138,0,0,0,0,0,0,-1.0616,-1.0667,-1.0669,-1.073,-1.0765,-1.0811,-1.084,-1.0845,-1.0885,-1.0883,-1.0907,-1.0918,-1.0974,-1.0997,-1.0973,-1.1067,-1.1052,-1.1058,-1.105,-1.1055,-1.106,-1.1053,-1.0969,0,0,0,0,0,-1.0622,-1.0662,-1.0705,-1.0754,-1.0772,-1.0803,-1.0828,-1.084,-1.0878,-1.0893,-1.0924,-1.0961,-1.1003,-1.103,-1.1072,-1.1133,-1.1144,-1.1158,-1.1162,-1.1166,-1.1171,-1.1205,-1.1212,-1.1137,-1.1137,-1.1137,0,0,-1.0637,-1.067,-1.0694,-1.0755,-1.0784,-1.0825,-1.0815,-1.086,-1.0891,-1.09,-1.0955,-1.0979,-1.1022,-1.1081,-1.1108,-1.1102,-1.1194,-1.117,-1.1172,-1.1176,-1.1209,-1.1216,-1.1223,-1.1139,-1.1139,-1.1138,0,0,-1.0685,-1.0714,-1.0758,-1.0787,-1.083,-1.085,-1.0861,-1.0906,-1.0922,-1.0977,-1.0985,-1.1022,-1.1095,-1.1125,-1.1149,-1.1208,-1.1212,-1.122,-1.1242,-1.1275,-1.1281,-1.1286,-1.1307,-1.1314,-1.1225,-1.1226,-1.1226,0,-1.0698,-1.076,-1.078,-1.0824,-1.085,-1.086,-1.0904,-1.0932,-1.0987,-1.1005,-1.0996,-1.1087,-1.1117,-1.1183,-1.1197,-1.1216,-1.1229,-1.1215,-1.1278,-1.1284,-1.1289,-1.1309,-1.1317,-1.1226,-1.1226,-1.1226,-1.1226,0,-1.0774,-1.0817,-1.0848,-1.09,-1.0929,-1.0974,-1.1,-1.1028,-1.1037,-1.1059,-1.1115,-1.115,-1.1199,-1.1215,-1.1225,-1.1283,-1.1277,-1.1273,-1.1259,-1.1297,-1.1316,-1.1324,-1.1227,-1.1227,-1.1227,-1.1227,0,0,-1.0826,-1.0887,-1.0898,-1.0921,-1.0969,-1.1003,-1.1047,-1.1094,-1.1117,-1.1155,-1.1193,-1.1253,-1.125,-1.1278,-1.1291,-1.132,-1.1363,-1.1312,-1.1314,-1.1321,-1.1429,-1.1432,-1.144,-1.1366,-1.1367,-1.1369,-1.1425,0,-1.088,-1.0959,-1.0977,-1.1045,-1.1085,-1.1093,-1.1132,-1.1165,-1.1186,-1.1223,-1.1246,-1.1289,-1.1281,-1.1297,-1.1326,-1.1352,-1.1385,-1.1348,-1.1402,-1.1404,-1.1391,-1.1451,-1.1454,-1.1506,-1.1433,-1.1434,-1.1435,0,-1.0954,-1.0991,-1.1063,-1.1105,-1.1122,-1.1157,-1.12,-1.1236,-1.1274,-1.1287,-1.1317,-1.1328,-1.1374,-1.1356,-1.1421,-1.1395,-1.1418,-1.1434,-1.1436,-1.1443,-1.1422,-1.1459,-1.1523,-1.1531,-1.1447,-1.1446,-1.1445,0,-1.0984,-1.1053,-1.1105,-1.1124,-1.1174,-1.1198,-1.122,-1.1257,-1.1284,-1.1322,-1.134,-1.1383,-1.1407,-1.1441,-1.1462,-1.1447,-1.1525,-1.1509,-1.1538,-1.1537,-1.1554,-1.1553,-1.1623,-1.1568,-1.1568,-1.1568,-1.1568,0,-1.1043,-1.1086,-1.1119,-1.1151,-1.12,-1.122,-1.1268,-1.129,-1.1323,-1.1359,-1.1369,-1.1403,-1.1429,-1.1467,-1.1484,-1.1535,-1.1546,-1.1558,-1.1562,-1.1557,-1.1556,-1.1573,-1.1571,-1.157,-1.157,-1.1569,-1.1569,0,-1.1086,-1.111,-1.1166,-1.1208,-1.122,-1.1254,-1.1291,-1.1322,-1.1342,-1.1388,-1.14,-1.1432,-1.1477,-1.1501,-1.1558,-1.1569,-1.1626,-1.1628,-1.1613,-1.1615,-1.1642,-1.164,-1.1727,-1.174,-1.1675,-1.1676,-1.1676,0,-1.1122,-1.1156,-1.1201,-1.1226,-1.1248,-1.1288,-1.1315,-1.1336,-1.1363,-1.1409,-1.1434,-1.1479,-1.1517,-1.1588,-1.1617,-1.166,-1.1663,-1.1691,-1.167,-1.1664,-1.1664,-1.1662,-1.1666,-1.1695,-1.1695,-1.1696,-1.1696,0,-1.1184,-1.1194,-1.1232,-1.1274,-1.1305,-1.1339,-1.1373,-1.1393,-1.1419,-1.145,-1.1495,-1.1524,-1.1581,-1.1626,-1.1671,-1.1694,-1.17,-1.1702,-1.1711,-1.1707,-1.1697,-1.1703,-1.1624,-1.17,-1.17,-1.17,-1.1699,-1.1699,-1.1226,-1.1256,-1.1292,-1.1334,-1.1361,-1.1392,-1.1423,-1.1447,-1.1485,-1.1532,-1.1542,-1.159,-1.1627,-1.1688,-1.1712,-1.175,-1.1745,-1.1758,-1.1761,-1.1764,-1.1765,-1.169,-1.1758,-1.1758,-1.1758,-1.1758,-1.1758,0,-1.1289,-1.1312,-1.135,-1.1396,-1.1429,-1.143,-1.1467,-1.1495,-1.1537,-1.157,-1.1606,-1.1658,-1.1701,-1.1732,-1.1776,-1.1801,-1.1805,-1.1812,-1.1811,-1.1816,-1.1767,-1.1755,-1.1808,-1.1808,-1.1808,-1.1808,-1.1808,-1.1808,-1.1325,-1.1376,-1.1389,-1.1453,-1.1477,-1.1523,-1.1544,-1.1573,-1.16,-1.1657,-1.1692,-1.1712,-1.1745,-1.1791,-1.1831,-1.1839,-1.1855,-1.1862,-1.187,-1.1825,-1.1819,-1.1814,-1.1803,-1.1865,-1.1865,-1.1916,-1.1916,-1.1916]},{"header":{"parameterUnit":"m.s-1","parameterCategory":1,"la1":30.2991,"la2":30.254,"lo1":-89.0895,"lo2":-89.0444,"dy":0.0017,"dx":0.0017,"nx":28,"ny":28,"refTime":"2023-10-05T09:00:00:Z","depth":0,"parameterNumber":3,"parameterNumberName":"V-component_of_WINDS"},"data":[0,0,0,0,0,0,0,0,0,0,0,0,0,0,0,0,0,0,0,0,0,0,0,0,0,0,0,0,0,0,0,0,0,0,0,0,0,0,0,0,0,0,0,0,0,0,0,0,0,0,0,0,0,0,0,0,0,0,-0.3019,-0.3018,0,-0.2959,-0.2958,-0.2958,-0.2952,-0.2952,-0.2953,-0.2954,-0.2894,-0.2892,-0.289,0,0,0,0,0,0,0,0,0,0,0,0,0,-0.3129,-0.3127,-0.3019,-0.3018,-0.3017,-0.2959,-0.2958,-0.2957,-0.2952,-0.2952,-0.2953,-0.2954,-0.2894,-0.2892,-0.2889,0,0,0,0,0,0,0,0,0,0,0,0,0,-0.3076,-0.3126,-0.3019,-0.3007,-0.3006,-0.2959,-0.2958,-0.2957,-0.2952,-0.2953,-0.2953,-0.2954,-0.2895,-0.2892,-0.2889,-0.285,0,0,-0.2879,-0.2878,0,0,0,0,0,0,0,0,-0.3079,-0.3072,-0.301,-0.3008,-0.3006,-0.2964,-0.2975,-0.2921,-0.2951,-0.2972,-0.2954,-0.2955,-0.2916,-0.2911,-0.2898,-0.2847,-0.2845,-0.2879,-0.2877,-0.2875,-0.2874,0,0,0,0,0,0,0,-0.3083,-0.3075,-0.2995,-0.3009,-0.3007,-0.3006,-0.2999,-0.2965,-0.294,-0.297,-0.297,-0.2963,-0.2916,-0.2901,-0.2897,-0.2844,-0.2879,-0.2876,-0.2874,-0.2873,-0.2758,-0.2757,0,0,0,0,0,0,-0.3089,-0.3078,-0.2997,-0.2993,-0.3046,-0.3003,-0.2996,-0.2976,-0.294,-0.2936,-0.2962,-0.2963,-0.2907,-0.2901,-0.2895,-0.2846,-0.2875,-0.2872,-0.287,-0.2759,-0.2758,-0.2757,0,0,0,0,0,0,-0.3091,-0.3082,-0.2999,-0.3035,-0.3025,-0.3,-0.2978,-0.2975,-0.2961,-0.2934,-0.2929,-0.2952,-0.2907,-0.2899,-0.2861,-0.2844,-0.2871,-0.2868,-0.276,-0.2759,-0.2757,-0.275,0,0,0,0,0,0,-0.3094,-0.3082,-0.3067,-0.3035,-0.3023,-0.2966,-0.2977,-0.2973,-0.2955,-0.2955,-0.2923,-0.2919,-0.2907,-0.2866,-0.2858,-0.284,-0.2865,-0.2762,-0.276,-0.2758,-0.2752,-0.2748,-0.2745,0,0,0,0,0,-0.3098,-0.3068,-0.3066,-0.3057,-0.3003,-0.2966,-0.2959,-0.2945,-0.2953,-0.2938,-0.2921,-0.292,-0.2848,-0.2862,-0.2853,-0.2834,-0.2763,-0.276,-0.2758,-0.2753,-0.2749,-0.2746,0,0,0,0,0,0,-0.3099,-0.3063,-0.3061,-0.302,-0.2996,-0.2965,-0.2945,-0.2942,-0.2915,-0.2916,-0.2901,-0.2894,-0.2857,-0.2842,-0.2859,-0.2795,-0.2806,-0.2802,-0.2806,-0.2801,-0.2798,-0.2803,-0.2863,0,0,0,0,0,-0.3094,-0.3066,-0.3037,-0.3003,-0.2991,-0.297,-0.2953,-0.2945,-0.2919,-0.2909,-0.2889,-0.2865,-0.2837,-0.2818,-0.2791,-0.275,-0.2743,-0.2732,-0.2729,-0.2727,-0.2723,-0.27,-0.2695,-0.2749,-0.2749,-0.2749,0,0,-0.3084,-0.3061,-0.3045,-0.3002,-0.2983,-0.2954,-0.2961,-0.2931,-0.2909,-0.2905,-0.2867,-0.2852,-0.2824,-0.2784,-0.2765,-0.277,-0.2707,-0.2724,-0.2722,-0.2719,-0.2697,-0.2692,-0.2687,-0.2747,-0.2747,-0.2748,0,0,-0.3051,-0.3031,-0.3,-0.298,-0.295,-0.2937,-0.2929,-0.2899,-0.2888,-0.285,-0.2846,-0.2821,-0.2772,-0.2752,-0.2736,-0.2695,-0.2693,-0.2687,-0.2671,-0.2648,-0.2644,-0.264,-0.2625,-0.262,-0.2683,-0.2683,-0.2683,0,-0.3042,-0.2999,-0.2985,-0.2954,-0.2936,-0.293,-0.2899,-0.288,-0.2843,-0.2831,-0.2837,-0.2776,-0.2757,-0.2712,-0.2702,-0.2689,-0.268,-0.269,-0.2645,-0.2641,-0.2638,-0.2623,-0.2618,-0.2683,-0.2683,-0.2683,-0.2683,0,-0.2989,-0.2959,-0.2938,-0.2901,-0.2881,-0.285,-0.2832,-0.2813,-0.2807,-0.2792,-0.2754,-0.273,-0.2698,-0.2687,-0.2681,-0.2641,-0.2645,-0.2649,-0.266,-0.2632,-0.2618,-0.2613,-0.2682,-0.2682,-0.2682,-0.2682,0,0,-0.2954,-0.2911,-0.2903,-0.2886,-0.2853,-0.2829,-0.2799,-0.2766,-0.275,-0.2725,-0.2698,-0.2658,-0.2661,-0.2642,-0.2634,-0.2614,-0.2583,-0.262,-0.2619,-0.2613,-0.2537,-0.2534,-0.2528,-0.2582,-0.258,-0.258,-0.2539,0,-0.2917,-0.2861,-0.2848,-0.28,-0.2772,-0.2766,-0.2739,-0.2716,-0.2702,-0.2676,-0.2661,-0.2632,-0.2639,-0.2627,-0.2608,-0.2591,-0.2567,-0.2594,-0.2557,-0.2556,-0.2563,-0.252,-0.2517,-0.248,-0.2534,-0.2533,-0.2532,0,-0.2865,-0.2838,-0.2787,-0.2757,-0.2745,-0.2721,-0.269,-0.2666,-0.264,-0.2631,-0.261,-0.2604,-0.2572,-0.2585,-0.2541,-0.2559,-0.2543,-0.2533,-0.2531,-0.2526,-0.2542,-0.2514,-0.2468,-0.2462,-0.2523,-0.2524,-0.2525,0,-0.2844,-0.2795,-0.2758,-0.2744,-0.2708,-0.2692,-0.2676,-0.2651,-0.2632,-0.2606,-0.2593,-0.2564,-0.2547,-0.2525,-0.2511,-0.2522,-0.2467,-0.2479,-0.2459,-0.2459,-0.2447,-0.2448,-0.2397,-0.2438,-0.2438,-0.2438,-0.2439,0,-0.2803,-0.2772,-0.2748,-0.2725,-0.269,-0.2676,-0.2642,-0.2627,-0.2604,-0.2578,-0.2572,-0.2548,-0.2532,-0.2505,-0.2494,-0.2459,-0.2452,-0.2444,-0.2441,-0.2444,-0.2445,-0.2433,-0.2435,-0.2437,-0.2437,-0.2438,-0.2438,0,-0.2773,-0.2755,-0.2715,-0.2684,-0.2676,-0.2652,-0.2626,-0.2603,-0.259,-0.2557,-0.2549,-0.2527,-0.2496,-0.248,-0.2441,-0.2434,-0.2394,-0.2393,-0.2402,-0.2401,-0.2381,-0.2383,-0.232,-0.2311,-0.2359,-0.2359,-0.2358,0,-0.2747,-0.2723,-0.269,-0.2672,-0.2656,-0.2627,-0.2608,-0.2593,-0.2574,-0.2542,-0.2524,-0.2492,-0.2466,-0.2417,-0.2398,-0.2368,-0.2366,-0.2346,-0.2362,-0.2365,-0.2365,-0.2367,-0.2364,-0.2343,-0.2343,-0.2343,-0.2342,0,-0.2703,-0.2696,-0.2668,-0.2638,-0.2615,-0.259,-0.2566,-0.2552,-0.2533,-0.2512,-0.248,-0.2459,-0.242,-0.2389,-0.2358,-0.2342,-0.2339,-0.2338,-0.2331,-0.2333,-0.2339,-0.2335,-0.2394,-0.2339,-0.2339,-0.234,-0.234,-0.234,-0.2674,-0.2652,-0.2625,-0.2595,-0.2575,-0.2552,-0.253,-0.2513,-0.2486,-0.2452,-0.2445,-0.2411,-0.2386,-0.2344,-0.2327,-0.2301,-0.2305,-0.2296,-0.2293,-0.2291,-0.229,-0.2344,-0.2295,-0.2295,-0.2295,-0.2295,-0.2295,0,-0.2629,-0.2612,-0.2584,-0.255,-0.2526,-0.2525,-0.2498,-0.2478,-0.2448,-0.2424,-0.2399,-0.2362,-0.2332,-0.231,-0.228,-0.2262,-0.226,-0.2255,-0.2255,-0.2252,-0.2288,-0.2296,-0.2257,-0.2257,-0.2257,-0.2257,-0.2257,-0.2257,-0.2603,-0.2566,-0.2555,-0.2509,-0.2491,-0.2458,-0.2442,-0.2421,-0.2402,-0.2361,-0.2336,-0.2322,-0.2299,-0.2267,-0.2239,-0.2234,-0.2222,-0.2217,-0.2211,-0.2245,-0.2249,-0.2253,-0.2261,-0.2215,-0.2215,-0.2177,-0.2177,-0.2176]}]]